#timestamp,LO_Frequency,Hit 
1498766415.2,286047030.9,N
1498766435.0,286047034.2,N
1498766435.9,286047034.2,N
1498766455.8,286047032.2,N
1498766475.6,286047034.5,N
1498766495.4,286047035.5,N
1498766515.3,286047034.9,N
1498766535.1,286047035.4,N
1498766555.8,286047037.1,N
1498766575.7,286047038.6,N
1498766595.5,286047038.2,N
1498766615.3,286047039.6,N
1498766635.2,286047036.7,N
1498766655.9,286047038.8,N
1498766675.7,286047037.0,N
1498766695.6,286047037.7,N
1498766715.4,286047035.4,N
1498766735.2,286047036.5,N
1498766755.0,286047034.9,N
1498766755.9,286047034.9,N
1498766775.8,286047037.9,N
1498766795.6,286047035.2,N
1498766815.4,286047036.1,N
1498766835.3,286047034.5,N
1498766855.1,286047035.3,N
1498766875.8,286047035.3,N
1498766895.7,286047037.1,N
1498766915.5,286047039.2,N
1498766935.3,286047036.8,N
1498766955.2,286047034.9,N
1498766975.9,286047034.9,N
1498766995.7,286047037.7,N
1498767015.5,286047039.1,N
1498767035.4,286047037.9,N
1498767055.2,286047037.9,N
1498767075.0,286047036.5,N
1498767075.9,286047036.5,N
1498767095.8,286047037.6,N
1498767115.6,286047036.1,N
1498767135.4,286047036.1,N
1498767155.3,286047036.5,N
1498767175.1,286047038.4,N
1498767195.8,286047038.9,N
1498767215.7,286047040.8,N
1498767235.5,286047038.5,N
1498767255.3,286047040.3,N
1498767275.2,286047042.2,N
1498767295.9,286047042.0,N
1498767315.7,286047041.6,N
1498767335.6,286047042.6,N
1498767355.4,286047042.2,N
1498767375.2,286047044.4,N
1498767395.0,286047044.0,N
1498767395.9,286047044.0,N
1498767415.8,286047046.0,N
1498767435.6,286047044.1,N
1498767455.4,286047045.5,N
1498767475.3,286047047.5,N
1498767495.1,286047047.4,N
1498767515.8,286047048.3,N
1498767535.7,286047049.1,N
1498767555.5,286047046.3,N
1498767575.3,286047045.3,N
1498767595.2,286047045.0,N
1498767615.9,286047046.3,N
1498767635.7,286047047.4,N
1498767655.6,286047045.4,N
1498767675.4,286047044.3,N
1498767695.2,286047045.0,N
1498767715.0,286047048.5,N
1498767715.9,286047048.5,N
1498767735.8,286047049.0,N
1498767755.6,286047046.6,N
1498767775.4,286047047.5,N
1498767795.3,286047046.7,N
1498767815.1,286047052.4,N
1498767835.8,286047050.1,N
1498767855.7,286047050.4,N
1498767875.5,286047048.6,N
1498767895.3,286047048.6,N
1498767915.2,286047048.3,N
1498767935.9,286047048.8,N
1498767955.7,286047047.1,N
1498767975.6,286047045.0,N
1498767995.4,286047044.5,N
1498768015.2,286047046.9,N
1498768035.0,286047048.0,N
1498768035.9,286047048.0,N
1498768055.8,286047051.0,N
1498768075.6,286047051.6,N
1498768095.4,286047049.6,N
1498768115.3,286047049.1,N
1498768135.1,286047048.3,N
1498768136.0,286047048.3,N
1498768155.8,286047052.1,N
1498768175.7,286047049.7,N
1498768195.5,286047052.0,N
1498768215.3,286047051.1,N
1498768235.2,286047053.4,N
1498768255.9,286047053.6,N
1498768275.7,286047053.8,N
1498768295.6,286047052.5,N
1498768315.4,286047054.0,N
1498768335.6,286047051.1,N
1498768355.4,286047049.5,N
1498768375.2,286047052.0,N
1498768395.1,286047051.6,N
1498768396.0,286047051.6,N
1498768415.8,286047052.2,N
1498768435.6,286047051.5,N
1498768455.5,286047051.9,N
1498768475.3,286047049.9,N
1498768495.1,286047049.4,N
1498768515.9,286047052.2,N
1498768535.7,286047052.1,N
1498768555.5,286047053.5,N
1498768575.3,286047053.9,N
1498768595.2,286047054.0,N
1498768615.0,286047054.6,N
1498768615.9,286047054.6,N
1498768635.7,286047054.6,N
1498768655.6,286047055.0,N
1498768675.4,286047053.7,N
1498768695.2,286047052.7,N
1498768715.1,286047056.3,N
1498768716.0,286047056.3,N
1498768735.8,286047058.4,N
1498768755.6,286047057.6,N
1498768775.5,286047057.3,N
1498768795.3,286047059.9,N
1498768815.1,286047056.3,N
1498768835.9,286047056.0,N
1498768855.7,286047058.6,N
1498768875.5,286047057.6,N
1498768895.4,286047056.1,N
1498768915.2,286047058.5,N
1498768935.0,286047059.1,N
1498768935.9,286047059.1,N
1498768955.8,286047063.6,N
1498768975.6,286047063.0,N
1498768995.4,286047062.0,N
1498769015.2,286047059.0,N
1498769035.1,286047061.1,N
1498769036.0,286047061.1,N
1498769055.8,286047065.2,N
1498769075.6,286047060.6,N
1498769095.5,286047061.5,N
1498769115.3,286047063.4,N
1498769135.1,286047065.1,N
1498769155.9,286047065.1,N
1498769175.7,286047062.7,N
1498769195.5,286047061.3,N
1498769215.4,286047061.6,N
1498769235.2,286047063.3,N
1498769255.0,286047063.4,N
1498769255.9,286047063.4,N
1498769275.8,286047062.2,N
1498769295.6,286047062.8,N
1498769315.4,286047066.2,N
1498769335.2,286047069.5,N
1498769355.1,286047070.6,N
1498769356.0,286047070.6,N
1498769375.8,286047074.8,N
1498769395.6,286047074.8,N
1498769415.5,286047073.5,N
1498769435.3,286047074.1,N
1498769455.1,286047070.5,N
1498769475.9,286047074.7,N
1498769495.8,286047069.9,N
1498769515.6,286047069.0,N
1498769535.5,286047072.8,N
1498769555.3,286047072.9,N
1498769575.1,286047069.2,N
1498769595.9,286047068.2,N
1498769615.7,286047065.3,N
1498769635.5,286047070.2,N
1498769655.3,286047073.6,N
1498769675.2,286047081.1,N
1498769695.0,286047084.7,N
1498769695.9,286047084.7,N
1498769715.7,286047090.4,N
1498769735.6,286047085.8,N
1498769755.4,286047081.2,N
1498769775.2,286047077.5,N
1498769795.1,286047081.0,N
1498769796.0,286047081.0,N
1498769815.8,286047078.1,N
1498769835.6,286047080.4,N
1498769855.5,286047082.8,N
1498769875.3,286047080.5,N
1498769895.1,286047081.1,N
1498769915.9,286047079.8,N
1498769935.7,286047081.7,N
1498769955.5,286047084.1,N
1498769975.4,286047085.9,N
1498769995.2,286047085.4,N
